This is the latest recevied weather packets stored in our database for station/object W5ADC. If no packets are shown the sender has not sent any weather packets the latest 10 day(s).
| Time | Temp. | Humidity | Pressure | Rain* | Wind** | Luminosity | Snow |
|---|---|---|---|---|---|---|---|
| 1777589624 | 16.67° C | 79% | 1009.6 hPa | 0 mm | - | 62 W/m² | - |
| 1777589320 | 16.67° C | 78% | 1009.7 hPa | 0 mm | - | 72 W/m² | - |
| 1777589013 | 16.67° C | 78% | 1009.7 hPa | 0 mm | - | 60 W/m² | - |
| 1777588708 | 16.67° C | 79% | 1009.8 hPa | 0 mm | - | 52 W/m² | - |
| 1777588404 | 16.67° C | 80% | 1010.1 hPa | 0 mm | - | 41 W/m² | - |
| 1777588099 | 16.67° C | 79% | 1010 hPa | 0 mm | - | 42 W/m² | - |
| 1777587791 | 16.67° C | 79% | 1009.7 hPa | 0 mm | - | 46 W/m² | - |
| 1777587489 | 16.67° C | 78% | 1009.7 hPa | 0 mm | - | 46 W/m² | - |
| 1777587186 | 16.67° C | 78% | 1009.8 hPa | 0 mm | - | 63 W/m² | - |
| 1777586882 | 16.67° C | 78% | 1009.7 hPa | 0 mm | - | 52 W/m² | - |
| 1777586578 | 16.67° C | 78% | 1010.1 hPa | 0 mm | - | 38 W/m² | - |
| 1777586273 | 16.67° C | 78% | 1010.1 hPa | 0 mm | - | 49 W/m² | - |
| 1777585971 | 16.67° C | 78% | 1010.2 hPa | 0 mm | - | 40 W/m² | - |
| 1777585666 | 16.67° C | 78% | 1010.4 hPa | 0 mm | - | 40 W/m² | - |
| 1777585361 | 16.67° C | 78% | 1010.3 hPa | 0 mm | - | 44 W/m² | - |
| 1777585056 | 16.67° C | 78% | 1010.3 hPa | 0 mm | - | 43 W/m² | - |
| 1777584752 | 16.67° C | 78% | 1010.2 hPa | 0 mm | - | 49 W/m² | - |
| 1777584451 | 16.67° C | 78% | 1010 hPa | 0 mm | - | 63 W/m² | - |
| 1777584147 | 16.67° C | 79% | 1010.3 hPa | 0 mm | - | 72 W/m² | - |
| 1777583846 | 16.67° C | 80% | 1009.9 hPa | 0 mm | - | 82 W/m² | - |
| 1777583542 | 16.67° C | 79% | 1010 hPa | 0 mm | - | 85 W/m² | - |
| 1777583241 | 16.67° C | 80% | 1010 hPa | 0 mm | - | 92 W/m² | - |
| 1777582936 | 16.67° C | 79% | 1009.9 hPa | 0 mm | - | 99 W/m² | - |
| 1777582634 | 16.67° C | 80% | 1009.6 hPa | 0 mm | - | 140 W/m² | - |
| 1777582328 | 16.67° C | 79% | 1009.9 hPa | 0 mm | - | 158 W/m² | - |
* Rain latest hour (hover to see other rain measurements)
** Current wind speed in m/s (hover to see current wind gust speed)